Regional Weather Roundup
Issued by NWS

Home | Current Version | Previous Version | Graphics & Text | Print | Product List | Glossary Off
Versions: 1 2 3 4 5 6 7 8 9 10 11 12 13 14 15 16 17 18 19 20 21 22 23 24 25 26 27 28 29 30 31 32 33 34 35 36 37 38 39 40 41 42 43 44 45 46 47 48 49 50

000
ASUS43 KLSX 260810
RWRMO

WEATHER SUMMARY FOR MISSOURI
NATIONAL WEATHER SERVICE SPRINGFIELD MO
300 AM CDT SAT MAY 26 2018

NOTE: "FAIR" INDICATES FEW OR NO CLOUDS BELOW 12,000 FEET WITH NO
       SIGNIFICANT WEATHER AND/OR OBSTRUCTIONS TO VISIBILITY.
       CURRENT SKY AND/OR WEATHER CONDITIONS ARE NOT AVAILABLE FOR
       CHILLICOTHE AND FARMINGTON.

MOZ001>031-035>038-043-044-053-054-260900-
...NORTHERN AND WESTERN MISSOURI...

CITY           SKY/WX    TMP DP  RH WIND       PRES   REMARKS
KANSAS CTY INT CLEAR     70  66  87 S8        29.80F
KANSAS C DTWN  CLEAR     72  65  78 SW5       29.79S
LEE`S SUMMIT   CLEAR     71  68  90 MISG      29.81F
ST JOSEPH      CLEAR     71  68  90 CALM      29.77F
CHILLICOTHE      N/A     72  68  87 S6        29.79F
KIRKSVILLE     CLEAR     68  67  96 SW6       29.80F

$$
MOZ066>068-077>081-088>096-101>105-260900-
...SOUTHWEST MISSOURI...

CITY           SKY/WX    TMP DP  RH WIND       PRES   REMARKS
SPRINGFIELD    PTCLDY    67  64  90 S7        29.85F
JOPLIN         CLEAR     66  65  96 S5        29.84F
BRANSON        FOG       63  63 100 CALM      29.87F VSB 1

$$
MOZ032>034-039>042-045>050-055>058-069>072-260900-
...CENTRAL MISSOURI...

CITY           SKY/WX    TMP DP  RH WIND       PRES   REMARKS
COLUMBIA       CLEAR     69  67  93 SW6       29.80F
JEFFERSON CITY CLOUDY    71  68  90 CALM      29.80F
ROLLA          PTCLDY    66  63  90 SW8       29.84F
SEDALIA        CLEAR     71  68  90 SW9       29.82F
WHITEMAN AFB   CLEAR     69  67  95 SW7       29.77F
WARRENSBURG    CLEAR     68  66  94 S5        29.80F
OSAGE BEACH    PTCLDY    66  64  93 S3        29.84F

$$
MOZ051-052-059>065-260900-
...EAST CENTRAL MISSOURI...

CITY           SKY/WX    TMP DP  RH WIND       PRES   REMARKS
ST LOUIS INTL  CLOUDY    72  68  87 SW5       29.81F
SPIRIT OF STL  MOCLDY    69  68  96 CALM      29.79F
ST CHARLES     CLOUDY    71  69  93 CALM      29.79F

$$
MOZ072>076-082>087-097>100-106>115-260900-
...SOUTH CENTRAL AND SOUTHEAST MISSOURI...

CITY           SKY/WX    TMP DP  RH WIND       PRES   REMARKS
CAPE GIRARDEAU FAIR      70  68  93 SE3       29.83F FOG
FARMINGTON     PTCLDY    67  66  97 S5        29.84F
POPLAR BLUFF   FAIR      70  70 100 CALM      29.84F FOG
WEST PLAINS    CLOUDY    67  65  93 W5        29.86F

$$



USA.gov is the U.S. government's official web portal to all federal, state and local government web resources and services.